Regional Weather Roundup
Issued by NWS

Home | Current Version | Previous Version | Graphics & Text | Print | Product List | Glossary On
Versions: 1 2 3 4 5 6 7 8 9 10 11 12 13 14 15 16 17 18 19 20 21 22 23 24 25 26 27 28 29 30 31 32 33 34 35 36 37 38 39 40 41 42 43 44 45 46 47 48 49 50
000
ASUS45 KTFX 290919
RWRMT
MONTANA HOURLY WEATHER ROUNDUP
NATIONAL WEATHER SERVICE GREAT FALLS MT
219 AM MST MON DEC 29 2014

NOTE: "FAIR" INDICATES FEW OR NO CLOUDS BELOW 12000 FEET WITH NO
SIGNIFICANT WEATHER AND/OR OBSTRUCTIONS TO VISIBILITY.

* THESE STATIONS ARE NOT UNDER NWS QUALITY CONTROL. THEY DO NOT
   REPORT WEATHER SUCH AS PRECIPITATION OR FOG.

MTZ001>007-043-291000-
WEST OF THE DIVIDE
CITY           SKY/WX    TMP DP  RH WIND       PRES   REMARKS
KALISPELL      CLOUDY    16   5  62 NE23      30.37R WCI  -2
MISSOULA       CLOUDY    16   7  67 SE17      30.31R
BUTTE          LGT SNOW   5   0  80 VRB3      30.16R VSB 3
MULLAN PASS    LGT SNOW  10   5  80 VRB3      30.02R VSB 1
* ESSEX        N/A       11  -1  58 NE3G11     N/A
* HAMILTON APT MOCLDY    18   7  62 N14       30.22R WCI   4
* LINCOLN      N/A        6  -3  66 NE15G26    N/A   WCI -12
* LOOKOUT PASS N/A       14  11  88 SW6        N/A   WCI   5
* POLSON       N/A       14   7  73 NE4        N/A
* RONAN APT    MOCLDY    18   9  68 E10G18     N/A   WCI   6
* SEELEY LAKE  N/A        5   1  83 NE1        N/A
* THOMP F APT  CLOUDY    10   5  80 NE2        N/A
$$

MTZ008-052>055-291000-
SOUTHWEST MONTANA
CITY           SKY/WX    TMP DP  RH WIND       PRES   REMARKS
BOZEMAN        LGT SNOW   9   7  91 SW3       30.24R VSB 3
DILLON         LGT SNOW   9   3  76 NE20      30.12R VSB 2    WCI -10
* W YELLOWSTON PTCLDY     5   1  83 N/A        N/A
* THREE FORKS  MOCLDY    12  10  92 N9         N/A
* BOULDER HILL N/A        3  -3  76 N18G24     N/A   WCI -17
* MONIDA PASS  N/A        6   3  87 NW3        N/A
* RAYNOLDS PAS N/A        2 -30  20 VRB12G17    N/A   WCI -15
* WHITEHALL    N/A       10   2  70 N10G17     N/A   WCI  -4
* WISE RIVER   N/A        8  -1  66 E11G18     N/A   WCI  -7
$$

MTZ009>010-012-014-046-048-049-054-291000-
EAST SLOPES AND CENTRAL MONTANA
CITY           SKY/WX    TMP DP  RH WIND       PRES   REMARKS
CUT BANK       LGT SNOW   3   0  87 N20       30.48R VSB 1 3/4 WCI -18
GREAT FALLS    LGT SNOW   1   0  95 N9        30.44R VSB 2 1/2 WCI -14
HELENA         CLOUDY    10   1  67 N13       30.36R WCI  -5
MALMSTROM AFB  LGT SNOW   3   1  91 N8        30.49R VSB 3    WCI -10
* CONRAD       PTCLDY     3   0  87 NW15       N/A   WCI -16
* DEARBORN     N/A        8   1  73 N5G11      N/A   WCI  -1
* EAST GLACIER N/A        1  -4  79 NE19       N/A   WCI -20
* MONARCH      N/A       -3  -8  79 W5         N/A   WCI -14
* PENDROY      N/A        2   0  91 VRB23G29    N/A   WCI -21
* SWEET GRASS  N/A        2  -2  83 N/A        N/A
* WHITE SULPH  N/A        3  -2  79 NW10G15    N/A   WCI -12
$$

MTZ011-013-016-021-035-040-045-047-050-051-291000-
NORTH CENTRAL MONTANA
CITY           SKY/WX    TMP DP  RH WIND       PRES   REMARKS
HAVRE          CLOUDY     9   1  70 NE9       30.56R WCI  -4
LEWISTOWN      LGT SNOW   7   1  76 N7        30.36R VSB 1 1/4 WCI  -5
* N BAR RANCH  MOCLDY     3  -2  79 NW6       30.33R WCI  -8
* CHINOOK      CLOUDY     9   0  66 CALM      30.58R
* CHESTER      N/A        6  -2  69 NE9G15     N/A   WCI  -8
* DENTON       N/A        7   3  83 NW11       N/A   WCI  -8
* JUDITH GAP   N/A        3   1  91 N20        N/A   WCI -18
* LOMA         N/A        8   4  84 N16G21     N/A   WCI -10
$$

MTZ017>020-022>027-061-062-291000-
NORTHEAST MONTANA
CITY           SKY/WX    TMP DP  RH WIND       PRES   REMARKS
GLASGOW        MOCLDY     0  -9  65 N10       30.57R WCI -16
GLENDIVE       CLOUDY     1  -4  79 N12       30.48R WCI -16
JORDAN         CLOUDY     7   0  73 NE9       30.48R WCI  -6
SIDNEY         CLEAR     -8 -11  86 NW10      30.59R WCI -26
WOLF POINT     MOCLDY    -2  -9  72 CALM      30.61R
* BEAVER HILL  N/A      N/A N/A N/A N20G26     N/A
* CIRCLE       N/A        3  -2  79 N6         N/A   WCI  -8
* LINDSAY DVD  N/A       -2  -6  83 N14        N/A   WCI -21
* NAVAJO       N/A      -11 -16  78 NW11       N/A   WCI -30
* PLENTYWOOD A CLEAR    -15 -18  86 NW9       30.57R WCI -33
* POPLAR APT   PTCLDY    -8 -13  78 N/A       30.61R
* SACO         N/A       -3  -8  79 NW4        N/A
$$

MTZ028>042-056>058-291000-
SOUTHCENTRAL AND SOUTHEAST MONTANA
CITY           SKY/WX    TMP DP  RH WIND       PRES   REMARKS
BAKER          CLOUDY     5   0  80 NE8       30.38R WCI  -8
BILLINGS       LGT SNOW  10   9  96 NE12      30.36R VSB 2    WCI  -5
LIVINGSTON     LGT SNOW  10   7  88 E15       30.23R VSB 3    WCI  -7
MILES CITY     LGT SNOW   7   1  76 NE17      30.44R WCI -11
* BIG TIMBER A MOCLDY     9   7  91 N9        30.29R VSB 1 1/2 WCI  -4
* FORSYTH APT  PTCLDY     5   1  83 N12       30.45R VSB 1 3/4 WCI -11
* LAUREL APT   MOCLDY    12   1  61 N8         N/A
* ROUNDUP APT  PTCLDY     7   0  73 N10G17     N/A   WCI  -7
* ALZADA       N/A       10   6  84 NE9        N/A   WCI  -3
* REED POINT   N/A       13  10  88 E8         N/A   WCI   2
* ROSCOE HILL  N/A        8   3  80 N/A        N/A
$$

REGIONAL REPORTS...DAKOTAS
CITY           SKY/WX    TMP DP  RH WIND       PRES   REMARKS
WILLISTON      PTCLDY    -8 -15  71 N10       30.57R WCI -26
DICKINSON      CLOUDY     1  -4  79 NE8       30.41R WCI -13
BEACH          CLOUDY     1   0  95 N7        30.43R WCI -12
CROSBY         CLEAR    -11 -17  74 NW12      30.59R WCI -31
WATFORD CITY   CLEAR    -11 -17  74 N5        30.52R WCI -23
BISMARCK       CLOUDY     0  -6  75 N8        30.53R WCI -14
GRAND FORKS    PTCLDY    -9 -15  74 N8        30.60R WCI -25
FARGO          CLEAR     -4 -11  71 N13       30.56R WCI -23
BUFFALO SD     MOCLDY     7   1  76 NE13      30.26R WCI  -9
RAPID CITY     LGT SNOW  10   7  88 NE12      30.27R VSB 2    WCI  -5
$$

REGIONAL REPORTS...WYOMING/IDAHO/WASHINGTON
CITY           SKY/WX    TMP DP  RH WIND       PRES   REMARKS
GILLETTE       LGT SNOW  14  10  84 N16       30.16R VSB 1    WCI  -2
SHERIDAN       LGT SNOW  10   5  80 NW10      30.27R WCI  -4
CODY           CLOUDY    10   9  96 N9        30.17R WCI  -3
YELLOWSTONE LA PTCLDY     9   3  76 VRB3      29.95R
SALMON         CLOUDY    19  18  96 S3        30.08R VSB 1 1/2
MULLAN PASS    LGT SNOW  10   5  80 VRB3      30.02S VSB 1
SAND POINT     CLOUDY    23  14  68 N24G33    30.30R WCI   7
SPOKANE        LGT SNOW  27  21  78 NE15      30.16R VSB 3    WCI  15
$$

REGIONAL REPORTS...ALBERTA
CITY           SKY/WX    TMP DP  RH WIND       PRES   REMARKS
CALGARY        LGT SNOW   5   0  80 N12       30.60R WCI -11
LETHBRIDGE     LGT SNOW   7   3  83 NE7       30.61R VSB 3    WCI  -5
MEDICINE HAT   CLOUDY     3  -2  79 N5        30.66R WCI  -7
EDMONTON       LGT SNOW   3  -4  72 N13       30.77R WCI -14
WATERTON GATE  N/A        3   0  87 N7         N/A   WCI  -9
CARDSTON       N/A        3   1  91 N6         N/A   WCI  -8
$$

REGIONAL REPORTS...SASKATCHEWAN
CITY           SKY/WX    TMP DP  RH WIND       PRES   REMARKS
SWIFT CURRENT  CLEAR    -15 -20  77 W9        30.58R WCI -33
REGINA         N/A      -20 -26  73 NW8       30.63R WCI -38
VAL MARIE      N/A       -8 -11  86 N7         N/A   WCI -23
ASSINIBOIA     N/A      -17 -22  77 W5         N/A   WCI -30

$$



USA.gov is the U.S. government's official web portal to all federal, state and local government web resources and services.